NIMBUS 2 DEB, 25613

Orbit data source: Space-Track

NIMBUS 2 DEB, 25613 is space debris in SSO originally from a launch on Sun, 15 May 1966 UTC launched from the Air Force Western Test Range (AFWTR). Debris objects in space refer to the collection of defunct objects orbiting the Earth. Examples of debris include non-operational satellites, rocket bodies, and fragments generated from explosions, collisions, or faulty payload assembly.

Loading next visibility...
Identifier
25613, 1966-040F
Orbit
SSO
Country
Flag of USUS
Related business
Manufacturer
Unknown
Mission
Spacecraft
Bus & Motor
Unknown
Mass
Unknown
Launch date (UTC)
1966-05-15 (59 years ago)
Launch vehicle
Unknown
Launch site
Air Force Western Test Range (AFWTR)
Object type
Payload
Rocket body
Debris
Shape & HBR
Unknown shape, 0.1 m
Radar Cross Section
Small (<0.1 m²)

Expand to show TLE details & history
Last TLE update: 6 hours ago

TLE from 6 hours ago
0 NIMBUS 2 DEB
1 25613U 66040F   25290.85908080  .00003596  00000-0  45516-2 0  9995
2 25613 100.4658  61.8864 0024822 294.2657 217.7616 13.64250400906548
Epoch: 2025-10-17T20:37Z
TLE epoch observation values (Epoch: 2025-10-17T20:37:04.581Z)
Latitude
27.67924°
Longitude
-88.44943°
Altitude
1,038.094 km
Speed
7.328 km/s
True Right ascension
16h 29m 40s
True Declination
27° 32' 36"
Sunlit
Object was in daylight at epoch
Visualization orbit readout
Latitude
Unknown
Longitude
Unknown
Altitude
Unknown
Speed
Unknown
Apparent Right ascension
Unknown
Apparent Declination
Unknown
Sunlit
N/A
Visualization observer readout
Local Sidereal Time
21:00:24
Azimuth
Unknown
Elevation
Unknown
Doppler factor
Unknown
Orbital elements
Apogee altitude
1,035.966 km
Perigee altitude
999.251 km
Semi-major axis
7,395.746 km
Eccentricity
0.00248
Inclination
100.4658°
RAAN
61.8864°
Arg. of periapsis
294.2657°
True anomaly
217.58784°
Mean anomaly
217.7616°
Eccentric anomaly
217.67468°
Mean motion
3.41248 °/min
Orbital period
105.5 mins
BSTAR
0.0045516
Loading maneuver chart data...
Computing Atmospheric mass density...
Loading historical data...
Loading historical data...
Loading historical data...
Loading historical data...
Loading historical data...
Loading historical data...
Loading historical data...

Documentation

Showing up to 5 results
|